TimePDT,TemperatureF,Dew PointF,Humidity,Sea Level PressureIn,VisibilityMPH,Wind Direction,Wind SpeedMPH,Gust SpeedMPH,PrecipitationIn,Events,Conditions,WindDirDegrees,DateUTC
12:55 AM,52.0,37.0,57,29.96,10.0,NE,3.5,-,N/A,,Clear,50,2012-10-10 07:55:00
1:55 AM,52.0,37.9,59,29.95,10.0,Calm,Calm,-,N/A,,Clear,0,2012-10-10 08:55:00
2:55 AM,50.0,37.0,61,29.94,10.0,ENE,3.5,-,N/A,,Clear,60,2012-10-10 09:55:00
3:55 AM,48.9,37.0,64,29.93,10.0,Calm,Calm,-,N/A,,Clear,0,2012-10-10 10:55:00
4:21 AM,48.2,37.4,66,29.93,10.0,East,13.8,63.3,N/A,,Squalls,100,2012-10-10 11:21:00
4:55 AM,45.0,37.0,74,29.93,10.0,ENE,3.5,-,N/A,,Clear,70,2012-10-10 11:55:00
5:55 AM,48.9,37.0,64,29.93,9.0,ENE,4.6,-,N/A,,Clear,60,2012-10-10 12:55:00
6:55 AM,46.9,36.0,66,29.93,9.0,Calm,Calm,-,N/A,,Clear,0,2012-10-10 13:55:00
7:55 AM,45.0,37.0,74,29.94,6.0,East,3.5,-,N/A,,Haze,80,2012-10-10 14:55:00
8:55 AM,50.0,39.0,66,29.94,7.0,Calm,Calm,-,N/A,,Clear,0,2012-10-10 15:55:00
9:55 AM,54.0,39.0,57,29.94,6.0,Calm,Calm,-,N/A,,Haze,0,2012-10-10 16:55:00
10:55 AM,57.0,41.0,55,29.92,7.0,Calm,Calm,-,N/A,,Clear,0,2012-10-10 17:55:00
11:55 AM,59.0,39.0,48,29.91,6.0,SSE,3.5,-,N/A,,Haze,150,2012-10-10 18:55:00
12:55 PM,64.0,39.9,41,29.88,6.0,Variable,5.8,-,N/A,,Haze,0,2012-10-10 19:55:00
1:55 PM,68.0,37.9,33,29.84,10.0,ESE,6.9,-,N/A,,Clear,120,2012-10-10 20:55:00
2:55 PM,70.0,39.0,32,29.83,10.0,ESE,9.2,-,N/A,,Clear,110,2012-10-10 21:55:00
3:55 PM,71.1,39.0,31,29.81,10.0,ESE,9.2,-,N/A,,Clear,110,2012-10-10 22:55:00
4:55 PM,71.1,39.0,31,29.81,10.0,ESE,9.2,-,N/A,,Clear,110,2012-10-10 23:55:00
5:55 PM,66.9,39.9,37,29.81,10.0,East,6.9,-,N/A,,Clear,100,2012-10-11 00:55:00
6:55 PM,61.0,39.9,46,29.83,10.0,East,9.2,-,N/A,,Clear,90,2012-10-11 01:55:00
7:55 PM,60.1,39.9,47,29.85,10.0,Calm,Calm,-,N/A,,Clear,0,2012-10-11 02:55:00
8:55 PM,57.0,39.9,53,29.86,10.0,Calm,Calm,-,N/A,,Clear,0,2012-10-11 03:55:00
9:55 PM,55.9,37.9,51,29.88,10.0,NNE,3.5,-,N/A,,Clear,20,2012-10-11 04:55:00
10:55 PM,55.9,37.0,49,29.89,10.0,West,9.2,-,N/A,,Clear,270,2012-10-11 05:55:00
11:55 PM,53.1,37.0,55,29.90,10.0,West,6.9,-,N/A,,Clear,270,2012-10-11 06:55:00